Location: Cicognara
(44.9500°N, 10.4667°E)
Time: 08:12:17
(UTC+00:00)

Cosmos 1626 - Pass Details

Date: 20 June 2021
Orbit: 488 x 493 km, 82.5° (Epoch: 04 August)

Event Time Altitude Azimuth Distance (km) Brightness Sun altitude
Exits shadow 19:55:10 - 155° (SSE) 1,855 4.4 -7.2°
Reaches altitude 10° 19:55:38 10° 152° (SSE) 1,681 4.2 -7.3°
Maximum altitude 19:58:51 29° 91° (E) 930 3.1 -7.7°
Drops below altitude 10° 20:02:05 10° 30° (NNE) 1,696 5.0 -8.1°
Sets 20:04:23 0° 19° (NNE) 2,585 6.1 -8.4°
